Gulfport, MS Weather Center

Moon Phase Calendar



Online Cameras

 


      

Current Conditions in Gulfport
6/21/2021 6:18:33 PM

77°F
Feels Like 79
Rain
Humidity
90%
Pressure
29.88"
Wind
11.5 mph (NW)
Dew Point
74°F
UV Index
0/10 (Low)
Visibility
4 mi

Hourly Forecast

Date & Time Mon, Jun 21
6:00 PM
Mon, Jun 21
7:00 PM
Mon, Jun 21
8:00 PM
Mon, Jun 21
9:00 PM
Mon, Jun 21
10:00 PM
Mon, Jun 21
11:00 PM
Tue, Jun 22
12:00 AM
Tue, Jun 22
1:00 AM
Tue, Jun 22
2:00 AM
Tue, Jun 22
3:00 AM
Tue, Jun 22
4:00 AM
Tue, Jun 22
5:00 AM
Tue, Jun 22
6:00 AM
Tue, Jun 22
7:00 AM
Tue, Jun 22
8:00 AM
Tue, Jun 22
9:00 AM
Tue, Jun 22
10:00 AM
Tue, Jun 22
11:00 AM
Tue, Jun 22
12:00 PM
Tue, Jun 22
1:00 PM
Tue, Jun 22
2:00 PM
Tue, Jun 22
3:00 PM
Tue, Jun 22
4:00 PM
Tue, Jun 22
5:00 PM
Tue, Jun 22
6:00 PM
Tue, Jun 22
7:00 PM
Tue, Jun 22
8:00 PM
Tue, Jun 22
9:00 PM
Tue, Jun 22
10:00 PM
Tue, Jun 22
11:00 PM
Wed, Jun 23
12:00 AM
Wed, Jun 23
1:00 AM
Wed, Jun 23
2:00 AM
Wed, Jun 23
3:00 AM
Wed, Jun 23
4:00 AM
Wed, Jun 23
5:00 AM
Wed, Jun 23
6:00 AM
Wed, Jun 23
7:00 AM
Wed, Jun 23
8:00 AM
Wed, Jun 23
9:00 AM
Wed, Jun 23
10:00 AM
Wed, Jun 23
11:00 AM
Wed, Jun 23
12:00 PM
Wed, Jun 23
1:00 PM
Wed, Jun 23
2:00 PM
Wed, Jun 23
3:00 PM
Wed, Jun 23
4:00 PM
Wed, Jun 23
5:00 PM
Condition
Rain

Rain

Rain

Rain

Rain

Rain

Rain

Rain

Rain

Clouds

Clouds

Clouds

Rain

Rain

Rain

Rain

Rain

Rain

Rain

Clouds

Clouds

Clouds

Rain

Rain

Rain

Rain

Rain

Rain

Rain

Rain

Rain

Clouds

Clear

Clear

Clear

Clear

Clear

Rain

Rain

Rain

Rain

Rain

Clear

Clear

Clear

Clear

Clouds

Clouds
Temperature 77°F77°F77°F77°F77°F76°F75°F75°F76°F76°F76°F76°F76°F75°F77°F79°F80°F80°F83°F84°F85°F85°F83°F82°F82°F80°F78°F78°F78°F78°F77°F77°F77°F76°F76°F76°F76°F77°F78°F79°F81°F83°F84°F85°F85°F85°F85°F84°F
Feels Like 79°F79°F79°F78°F78°F77°F77°F76°F77°F77°F77°F77°F77°F77°F78°F80°F80°F85°F88°F90°F90°F91°F89°F88°F87°F80°F80°F79°F79°F79°F79°F79°F78°F78°F78°F78°F78°F78°F80°F79°F86°F88°F89°F90°F91°F91°F91°F91°F
Cloudiness 90%92%94%96%98%100%100%99%100%100%100%100%100%100%100%100%100%100%100%100%87%92%94%96%97%97%100%100%100%100%99%88%1%2%3%4%4%5%5%3%2%2%1%1%1%4%11%22%
Visibility 6 mi6 mi6 mi6 mi6 mi6 mi6 mi6 mi6 mi6 mi6 mi6 mi6 mi6 mi6 mi6 mi6 mi6 mi6 mi6 mi6 mi6 mi6 mi6 mi6 mi6 mi6 mi6 mi6 mi6 mi6 mi6 mi6 mi6 mi6 mi6 mi6 mi6 mi6 mi6 mi6 mi6 mi6 mi6 mi6 mi6 mi6 mi6 mi
Precipitation 96%100%95%92%92%88%85%82%34%34%31%44%74%96%72%80%92%96%100%80%33%45%49%64%64%68%63%66%66%60%60%60%0%0%0%0%6%35%35%60%47%55%64%61%35%35%33%37%
Humidity 90%88%88%89%88%89%90%90%88%88%89%89%90%91%87%84%79%78%69%65%64%67%72%75%78%83%86%88%89%89%90%90%90%90%90%90%91%90%86%82%77%72%66%64%63%63%66%69%
Dew Point 74°F74°F73°F73°F73°F72°F72°F72°F72°F72°F72°F72°F72°F72°F73°F73°F73°F73°F71°F71°F71°F72°F73°F73°F74°F74°F74°F74°F74°F74°F74°F74°F73°F73°F73°F73°F73°F73°F74°F73°F73°F72°F71°F71°F71°F71°F72°F73°F
Pressure 29.88"29.88"29.91"29.91"29.94"29.94"29.94"29.91"29.94"29.91"29.91"29.91"29.94"29.94"29.97"29.97"29.97"29.97"29.97"29.97"29.94"29.94"29.91"29.91"29.94"29.94"29.94"29.97"29.97"29.97"29.97"29.97"29.97"29.94"29.97"29.97"30"30.03"30.03"30.06"30.06"30.06"30.06"30.03"30.03"30"30"30"
Wind Speed 10.7 mph11.3 mph14 mph10.8 mph14.2 mph12.9 mph11.3 mph10 mph9.6 mph9.1 mph8.5 mph8.7 mph7.2 mph6.4 mph5.7 mph5.1 mph5 mph5.2 mph5.9 mph6.2 mph7 mph9.6 mph9.5 mph9.7 mph10.8 mph8.6 mph7.4 mph6.6 mph6.7 mph6.4 mph5.3 mph4.7 mph5 mph4.5 mph5.4 mph5.6 mph6.2 mph5.9 mph5.1 mph5.3 mph5.4 mph5.4 mph5.6 mph6.7 mph7.4 mph7.8 mph8.2 mph8.4 mph
Wind
Direction
216°
SW
207°
SSW
205°
SSW
201°
SSW
207°
SSW
211°
SSW
209°
SSW
214°
SW
220°
SW
228°
SW
227°
SW
224°
SW
240°
WSW
273°
W
267°
W
262°
W
256°
WSW
237°
WSW
238°
WSW
216°
SW
201°
SSW
198°
SSW
192°
SSW
181°
S
201°
SSW
219°
SW
223°
SW
222°
SW
226°
SW
231°
SW
242°
WSW
241°
WSW
237°
WSW
241°
WSW
231°
SW
236°
SW
243°
WSW
255°
WSW
245°
WSW
241°
WSW
244°
WSW
245°
WSW
226°
SW
207°
SSW
187°
S
174°
S
174°
S
167°
SSE

Daily Forecast

Date High Low Precip. Humidity
Today
Jun 21

Rain
80 °F
76 °F
100%
86%
Tuesday
Jun 22

Rain
85 °F
75 °F
100%
69%
Wednesday
Jun 23

Rain
85 °F
76 °F
61%
64%
Thursday
Jun 24

Rain
86 °F
78 °F
94%
67%
Friday
Jun 25

Rain
83 °F
77 °F
94%
66%
Saturday
Jun 26

Rain
83 °F
77 °F
50%
68%
Sunday
Jun 27

Rain
84 °F
76 °F
25%
64%
Monday
Jun 28

Rain
84 °F
77 °F
33%
67%
Tuesday
Jun 29

Rain
84 °F
78 °F
40%
67%
Wednesday
Jun 30

Rain
84 °F
76 °F
98%
66%
Thursday
Jul 1

Rain
82 °F
75 °F
99%
85%
Friday
Jul 2

Rain
84 °F
74 °F
87%
74%
Saturday
Jul 3

Rain
79 °F
75 °F
100%
92%
Sunday
Jul 4

Rain
85 °F
79 °F
89%
75%
Monday
Jul 5

Clouds
85 °F
79 °F
0%
70%
Tuesday
Jul 6

Clear
86 °F
78 °F
0%
69%

Temperature 8-14 Day Outlook



Precipitation 8-14 Day Outlook




Quick Links
Gulfport, MS News
Gulfport, MS Photos
Gulfport, MS Videos




About Us
Contact Us
Site Map
Search Site
Advertise With Us
   
Gulfport.CoastalTown.com
THE GULFPORT, MS WEBSITE

Copyright 2021, Coastal Town
Privacy    |    Legal